Regional Weather Roundup
Issued by NWS

Home | Current Version | Previous Version | Text Only | Print | Product List | Glossary Off
Versions: 1 2 3 4 5 6 7 8 9 10 11 12 13 14 15 16 17 18 19 20 21 22 23 24 25 26 27 28 29 30 31 32 33 34 35 36 37 38 39 40 41 42 43 44 45 46 47 48 49 50

000
ASUS43 KOAX 242210
RWRNE

WEATHER ROUNDUP FOR NEBRASKA
NATIONAL WEATHER SERVICE OMAHA NE
500 PM CDT THU JUL 24 2014

NOTES: SATELLITE DATA IS BEING USED TO AUGMENT CLOUD COVER ABOVE
       12000 FEET.
       "FAIR" INDICATES FEW OR NO CLOUDS BELOW 12,000 FEET WITH NO
       SIGNIFICANT WEATHER AND/OR OBSTRUCTIONS TO VISIBILITY.

  * THESE STATIONS DO NOT REPORT WEATHER SUCH AS RAIN...SNOW OR FOG.

NEZ001>004-019>022-054>056-242300-
NEBRASKA PANHANDLE

CITY           SKY/WX    TMP DP  RH WIND       PRES   REMARKS
SCOTTSBLUFF    PTSUNNY  102  50  17 W21G32    29.87F HX  99
ALLIANCE       MOSUNNY  103  43  13 NW9       29.84F HX  98
CHADRON        MOSUNNY  101  39  12 W17G25    29.77R HX  96
KIMBALL        TSTM      75  57  53 SW21G30   30.00R
SIDNEY         CLOUDY    92  44  19 S21G31    29.95F
$$

NEZ057>060-069>072-079>082-242300-
SOUTHWEST NEBRASKA

CITY           SKY/WX    TMP DP  RH WIND       PRES   REMARKS
NORTH PLATTE   SUNNY     99  67  35 SE13      29.81F HX 103
IMPERIAL       MOSUNNY  102  45  14 S14       29.84F HX  98
LEXINGTON      SUNNY     93  72  49 S22G29    29.85F HX 100
MCCOOK         SUNNY    103  55  20 S20G29    29.84F HX 101
OGALLALA       PTSUNNY   94  58  29 SE5       29.84F HX  93
$$

NEZ005>010-023>029-035>040-094-242300-
NORTH CENTRAL NEBRASKA

CITY           SKY/WX    TMP DP  RH WIND       PRES   REMARKS
VALENTINE      LGT RAIN 104  65  28 S26G33    29.72F HX 108
AINSWORTH      SUNNY     94  67  42 S26G33    29.78F HX  97
BROKEN BOW     SUNNY     93  70  46 S24G33    29.86F HX  99
O`NEILL        SUNNY     88  65  46 S23G38    29.83F HX  90
ORD            SUNNY     88  69  53 S23G36    29.84F HX  92
THEDFORD       SUNNY     98  67  36 S23G32    29.82F HX 103
$$

NEZ041-046>049-061>064-073>077-083>087-242300-
SOUTH CENTRAL NEBRASKA

CITY           SKY/WX    TMP DP  RH WIND       PRES   REMARKS
GRAND ISLAND   SUNNY     88  68  51 S20G32    29.90F HX  91
AURORA         SUNNY     86  67  52 S20G28    29.91F
HASTINGS       SUNNY     90  64  42 S20G29    29.91F HX  91
HEBRON         SUNNY     87  63  43 S18G25    29.93F
HOLDREGE       SUNNY     94  67  41 SE20G26   29.88F HX  98
KEARNEY *      SUNNY     91  70  49 SE22G31   29.89F HX  97
YORK           SUNNY     86  66  51 S22G29    29.92F
$$

NEZ011>018-030>034-042>045-242300-
NORTHEAST NEBRASKA

CITY           SKY/WX    TMP DP  RH WIND       PRES   REMARKS
NORFOLK        SUNNY     85  63  47 S24G36    29.89F
ALBION         SUNNY     85  65  52 S23G31    29.90F
BLAIR          SUNNY     80  61  52 SE17G24   29.95F
COLUMBUS *     SUNNY     84  64  51 S20G28    29.93F
FREMONT        SUNNY     85  62  46 SE18      29.94F
TEKAMAH        MOSUNNY   82  63  52 SE17G30   29.94F
WAYNE          MOSUNNY   84  66  53 S24       29.92R
$$

NEZ050>053-065>068-078-088>093-242300-
SOUTHEAST NEBRASKA

CITY           SKY/WX    TMP DP  RH WIND       PRES   REMARKS
LINCOLN        SUNNY     88  63  43 SE17G28   29.96F
OMAHA EPPLEY   PTSUNNY   83  61  47 SE22G32   29.96F
BEATRICE       SUNNY     86  65  49 S15G23    29.95F
FALLS CITY     SUNNY     84  62  47 SE15      29.99F
NEBRASKA CITY  SUNNY     81  61  49 SE12      30.00F
PLATTSMOUTH    SUNNY     82  60  47 SE16      29.99F
$$

NEZ044-045-051>053-067-242300-
OMAHA AREA

CITY           SKY/WX    TMP DP  RH WIND       PRES   REMARKS
OMAHA EPPLEY   PTSUNNY   83  61  47 SE22G32   29.96F
BLAIR          SUNNY     80  61  52 SE17G24   29.95F
FREMONT        SUNNY     85  62  46 SE18      29.94F
MILLARD        SUNNY     82  63  51 SE18G26   29.96F
OFFUTT AFB     SUNNY     83  64  53 SE17G24   29.97F
PLATTSMOUTH    SUNNY     82  60  47 SE16      29.99F
WAHOO          FAIR      85  61  43 SE20G25   29.95F
$$



USA.gov is the U.S. government's official web portal to all federal, state and local government web resources and services.